WetterOnline ( https://www.wetteronline.de )

Wetter aktuell Tanvaldsky Spicak

Aktuelles Wetter: Liberec (401m)

6-stündlich | Neueste Meldungen
Ortszeit Temperatur Wetter
Di, 28.09. 2:00 14.6° C fast wolkenlos
Mo, 27.09. 20:00 17.0° C bewölkt
Mo, 27.09. 14:00 20.4° C wolkig
Mo, 27.09. 8:00 14.7° C leicht bewölkt
Mo, 27.09. 2:00 15.6° C leicht bewölkt
So, 26.09. 20:00 15.2° C leicht bewölkt
So, 26.09. 14:00 21.9° C fast wolkenlos
So, 26.09. 8:00 13.0° C leicht bewölkt
Ortszeit Temperatur Wetter
Di, 28.09. 7:00 12.9° C leicht bewölkt
Di, 28.09. 6:00 13.2° C Nebel
Di, 28.09. 5:00 13.5° C leicht bewölkt
Di, 28.09. 4:00 13.3° C bewölkt
Di, 28.09. 3:00 14.3° C wolkig
Di, 28.09. 2:00 14.6° C fast wolkenlos
Ortszeit Relative Feuchte Sichtweite
Di, 28.09. 2:00 95% 5.0 km
Mo, 27.09. 20:00 87% 22 km
Mo, 27.09. 14:00 70% 35 km
Mo, 27.09. 8:00 88% 22 km
Mo, 27.09. 2:00 80% 35 km
So, 26.09. 20:00 84% 30 km
So, 26.09. 14:00 58% 40 km
So, 26.09. 8:00 86% 35 km
Ortszeit Relative Feuchte Sichtweite
Di, 28.09. 7:00 96% 8 km
Di, 28.09. 6:00 96% 0.3 km
Di, 28.09. 5:00 96% 1.9 km
Di, 28.09. 4:00 96% 3.1 km
Di, 28.09. 3:00 96% 8 km
Di, 28.09. 2:00 95% 5.0 km
Ortszeit Niederschlagsmenge Niederschlagsart
Di, 28.09. 2:00 0.1 l/m2 in 6 Std. Regenschauer
Mo, 27.09. 20:00 0.0 l/m2 in 12 Std. -
Mo, 27.09. 14:00 0.0 l/m2 in 6 Std. -
Mo, 27.09. 8:00 0.0 l/m2 in 12 Std. -
Mo, 27.09. 2:00 0.0 l/m2 in 6 Std. -
So, 26.09. 20:00 0.0 l/m2 in 12 Std. -
So, 26.09. 14:00 0.0 l/m2 in 6 Std. -
So, 26.09. 8:00 0.0 l/m2 in 12 Std. -
Ortszeit Niederschlagsmenge Niederschlagsart
Di, 28.09. 7:00 0.0 l/m2 in 1 Std. -
Di, 28.09. 6:00 0.0 l/m2 in 1 Std. -
Di, 28.09. 5:00 0.0 l/m2 in 1 Std. -
Di, 28.09. 4:00 0.0 l/m2 in 1 Std. -
Di, 28.09. 3:00 0.0 l/m2 in 1 Std. -
Di, 28.09. 2:00 0.0 l/m2 in 1 Std. Regenschauer
Ortszeit Stärke Spitze Richtung
km/h Bft. km/h Grad Sektor
Di, 28.09. 2:00 4 1 - 80° O
Mo, 27.09. 20:00 4 1 - 310° NW
Mo, 27.09. 14:00 4 1 - 290° W
Mo, 27.09. 8:00 4 1 - 90° O
Mo, 27.09. 2:00 7 2 - 160° S
So, 26.09. 20:00 4 1 - 90° O
So, 26.09. 14:00 11 2 - 150° SO
So, 26.09. 8:00 4 1 - 140° SO
Ortszeit Stärke Spitze Richtung
km/h Bft. km/h Grad Sektor
Di, 28.09. 7:00 4 1 - 280° W
Di, 28.09. 6:00 0 0 - - -
Di, 28.09. 5:00 4 1 - 170° S
Di, 28.09. 4:00 4 1 - 300° NW
Di, 28.09. 3:00 4 1 - 300° NW
Di, 28.09. 2:00 4 1 - 80° O
Ortszeit Untergrenze Bedeckung Gattung
total tief tief mittel hoch
Di, 28.09. 2:00 540 m - 1/8 - - -
Mo, 27.09. 20:00 720 m 8/8 5/8 Sc As Cs
Mo, 27.09. 14:00 780 m 6/8 3/8 Cu Ac Cs
Mo, 27.09. 8:00 930 m 5/8 3/8 Sc Ac Ci
Mo, 27.09. 2:00 4500 m - 2/8 - - -
So, 26.09. 20:00 4500 m 6/8 6/8 - Ac -
So, 26.09. 14:00 1080 m 2/8 1/8 Cu Ac Ci
So, 26.09. 8:00 4800 m 5/8 5/8 - Ac -
Ortszeit Bedeckungsgrad in Achtel und Wolkenuntergrenze
Di, 28.09. 7:00 4(990m) 8(3900m)
Di, 28.09. 6:00 7(900m)
Di, 28.09. 5:00 2(720m) 3(1800m) 7(3600m)
Di, 28.09. 4:00 7(1800m)
Di, 28.09. 3:00 5(1800m) 8(3300m)
Di, 28.09. 2:00 1(540m) 7(3600m)
Ortszeit Luftdruck NN (hPa) Tendenz (hPa in 3 Std.)
Di, 28.09. 2:00 1020 + 0,8
Mo, 27.09. 20:00 1018 + 0,9
Mo, 27.09. 14:00 1017 - 0,5
Mo, 27.09. 8:00 1018 + 0,3
Mo, 27.09. 2:00 1018 - 0,2
So, 26.09. 20:00 1019 + 0,1
So, 26.09. 14:00 1019 - 0,5
So, 26.09. 8:00 1020 + 0,2
Ortszeit Luftdruck NN (hPa) Tendenz (hPa in 3 Std.)
Di, 28.09. 7:00 1021 + 0,5
Di, 28.09. 6:00 1021 + 0,5
Di, 28.09. 5:00 1020 + 0,3
Di, 28.09. 4:00 1020 + 0,7
Di, 28.09. 3:00 1020 + 0,6
Di, 28.09. 2:00 1020 + 0,8
Ortszeit Schneehöhe (cm)
Di, 28.09. 2:00 -
Mo, 27.09. 20:00 -
Mo, 27.09. 14:00 -
Mo, 27.09. 8:00 -
Mo, 27.09. 2:00 -
So, 26.09. 20:00 0
So, 26.09. 14:00 -
So, 26.09. 8:00 -
Ortszeit Schneehöhe (cm)
Di, 28.09. 7:00 -
Di, 28.09. 6:00 -
Di, 28.09. 5:00 -
Di, 28.09. 4:00 -
Di, 28.09. 3:00 -
Di, 28.09. 2:00 -
Link zu dieser Seite / Seite empfehlen

Das Wetter in ...